This is the latest recevied weather packets stored in our database for station/object KY4LEX. If no packets are shown the sender has not sent any weather packets the latest 10 day(s).
| Time | Temp. | Humidity | Pressure | Rain* | Wind** | Luminosity | Snow |
|---|---|---|---|---|---|---|---|
| 1777551433 | 7.78° C | 73% | 1021.1 hPa | 0 mm | - | 28 W/m² | - |
| 1777551130 | 7.78° C | 73% | 1021 hPa | 0 mm | - | 27 W/m² | - |
| 1777550828 | 7.78° C | 74% | 1021.1 hPa | 0 mm | - | 58 W/m² | - |
| 1777550523 | 7.78° C | 74% | 1021.2 hPa | 0 mm | - | 34 W/m² | - |
| 1777550219 | 7.78° C | 76% | 1021 hPa | 0 mm | - | 25 W/m² | - |
| 1777549916 | 7.78° C | 78% | 1020.6 hPa | 0 mm | - | 24 W/m² | - |
| 1777549612 | 7.22° C | 78% | 1020.6 hPa | 0 mm | - | 23 W/m² | - |
| 1777549307 | 7.22° C | 80% | 1020.9 hPa | 0 mm | - | 22 W/m² | - |
| 1777549005 | 7.22° C | 82% | 1020.9 hPa | 0 mm | - | 21 W/m² | - |
| 1777548701 | 7.22° C | 83% | 1020.7 hPa | 0 mm | - | 20 W/m² | - |
| 1777548399 | 7.22° C | 82% | 1020.7 hPa | 0 mm | - | 18 W/m² | - |
| 1777548096 | 6.67° C | 83% | 1020.6 hPa | 0 mm | - | 17 W/m² | - |
| 1777547791 | 6.67° C | 83% | 1020.4 hPa | 0 mm | - | 15 W/m² | - |
| 1777547487 | 6.67° C | 83% | 1020.2 hPa | 0 mm | - | 13 W/m² | - |
| 1777547185 | 6.67° C | 83% | 1020 hPa | 0 mm | - | 11 W/m² | - |
| 1777546882 | 7.22° C | 82% | 1020.1 hPa | 0 mm | - | 9 W/m² | - |
| 1777546579 | 7.22° C | 80% | 1019.8 hPa | 0 mm | - | 7 W/m² | - |
| 1777546276 | 7.78° C | 79% | 1020.1 hPa | 0 mm | - | 5 W/m² | - |
| 1777545973 | 7.78° C | 79% | 1019.9 hPa | 0 mm | - | 3 W/m² | - |
| 1777545669 | 7.78° C | 78% | 1019.9 hPa | 0 mm | - | 2 W/m² | - |
| 1777545366 | 7.78° C | 77% | 1019.9 hPa | 0 mm | - | 1 W/m² | - |
| 1777545063 | 7.78° C | 77% | 1019.6 hPa | 0 mm | - | 0 W/m² | - |
| 1777544760 | 7.78° C | 78% | 1019.7 hPa | 0 mm | - | 0 W/m² | - |
| 1777544455 | 7.78° C | 78% | 1019.7 hPa | 0 mm | - | 0 W/m² | - |
| 1777544152 | 7.78° C | 77% | 1019.6 hPa | 0 mm | - | 0 W/m² | - |
* Rain latest hour (hover to see other rain measurements)
** Current wind speed in m/s (hover to see current wind gust speed)